Weather in Borisovka

Russia / Belgorod Oblast     50°36′28″N   36°00′32″E
temp.,
°C
wind,
m/s
gust,
m/s
humid.,
%
clouds,
%
prec.,
mm/h
press.,
hPa
HPBL,
m
6 march, sat
sat600:00−2n249293 0.0 1017204
03:00−2n358690 0.0 1018299
06:00−3n3580100 0.0 1017355
09:00−3nnw5778100 0.0 1018560
12:00−2nnw6861100 0.0 10191130
15:00−2nnw796350 0.0 10191193
18:00−3nnw69610 0.0 10201239
21:00−4nw58660 0.0 1021840
7 march, sun
sun700:00−4wnw47690 0.0 1022876
03:00−4w46819 0.0 1022603
06:00−5wsw597831 0.0 1020549
09:00−4wsw8125960 0.0 1018847
12:00−1sw101549100 0.0 10151257
15:00+1wsw111755100 0.0 10111506
18:000wsw101785100 0.1 10091222
21:000wsw91687100 0.4 1009981
8 march, mon
mon800:000wsw91489100 0.1 1007944
03:00−1wsw91485100 0.3 1007921
06:00−1w81393100 0.4 1006966
09:00−2wnw81268100 0.9 10081268
12:00−3nw7115597 0.1 10101287
15:00−2nw7104283 0.1 10121484
18:00−4nw57520 0.0 10131280
21:00−5nw36590 0.0 1015897
9 march, tue
tue900:00−5wnw24650 0.0 1015555
03:00−5wsw25701 0.0 1015244
06:00−5w368498 0.1 1015391
09:00−5nw357695 0.1 1016582
12:00−4nnw6765100 0.3 10181021
15:00−5nnw676197 0.3 1019997
18:00−6nnw686447 0.0 1021900
21:00−7nnw466943 0.0 1024763
10 march, wed
wed1000:00−8nw24748 0.0 1025498
03:00−8w24766 0.0 1025270
06:00−8wsw357557 0.0 1024244
09:00−7wsw467078 0.0 1024386
12:00−3w455079 0.0 1023626
15:00−2wsw464489 0.0 1022881
18:00−3w354697 0.0 1021764
21:00−4w255463 0.0 1021263